Regional Weather Roundup
Issued by NWS Nashville, TN

Home | Current Version | Previous Version | Text Only | Print | Product List | Glossary On
Versions: 1 2 3 4 5 6 7 8 9 10 11 12 13 14 15 16 17 18 19 20 21 22 23 24 25 26 27 28 29 30 31 32 33 34 35 36 37 38 39 40 41 42 43 44 45 46 47 48 49 50
000
ASUS44 KOHX 191215
RWROHX
MIDDLE TENNESSEE HOURLY WEATHER ROUNDUP
NATIONAL WEATHER SERVICE NASHVILLE TN
600 AM CST FRI DEC 19 2014

NOTE: "FAIR" INDICATES FEW OR NO CLOUDS BELOW 12,000 FEET WITH
NO SIGNIFICANT WEATHER AND/OR OBSTRUCTIONS TO VISIBILITY.

* THESE REPORTS ARE NOT UNDER NWS QUALITY CONTROL AND MAY NOT
  REPORT WEATHER SUCH AS PRECIPITATION AND FOG.


TNZ005>011-023>034-057-059-062>066-078-080-191300
...NORTHERN MIDDLE TENNESSEE...

CITY           SKY/WX    TMP DP  RH WIND       PRES   REMARKS
CLARKSVILLE    CLOUDY    33  28  81 NE5       30.26S WCI  29
CROSSVILLE     CLEAR     29  25  85 CALM      30.18R FOG
GALLATIN       CLOUDY    33  30  89 N6        30.25R WCI  27
DICKSON        CLOUDY    32  28  86 NE5       30.22R WCI  27
LEBANON        CLOUDY    33  29  86 NE3       30.22S
LIVINGSTON     MOCLDY    29  28  96 NE6       30.21R WCI  23
NASHVILLE      CLOUDY    35  30  82 N6        30.25S WCI  30
WEST NASHVILLE CLOUDY    34  32  93 N5        30.25S WCI  30
PORTLAND       CLOUDY    30  27  86 N6        30.23R WCI  24
SMYRNA         CLOUDY    34  29  82 NE7       30.26R WCI  28
SPARTA         MOCLDY    28  27  93 CALM      30.20F
$$
TNZ056-058-060-061-075>077-079-093>097-191300
...SOUTHERN MIDDLE TENNESSEE...

CITY           SKY/WX    TMP DP  RH WIND       PRES   REMARKS
LEWISBURG      CLOUDY    34  31  89 NE3       30.22R
MCMINNVILLE    CLEAR     30  30 100 CALM      30.20F
MURFREESBORO   CLOUDY    34  30  85 NE5       30.23S WCI  30
SHELBYVILLE    CLOUDY    34  32  93 NE3       30.22S
TULLAHOMA      CLOUDY    32  30  93 NE3       30.20R
WINCHESTER     CLOUDY    32  30  93 CALM      30.21R
$$


...KEY TO REMARKS...
VSB - VISIBILITY IN MILES
WCI - WIND CHILL INDEX
HX  - HEAT INDEX




USA.gov is the U.S. government's official web portal to all federal, state and local government web resources and services.